"read_dt","SO2 (ppb)","flags","PMT voltage (V)","lamp voltage (V)","lamp intensity (Hz)","internal temp (C)","react chamber temp (C)","sample flow (l/min)","pres (mmHg)","SO2 bkg (ppb)","SO2 coefficient"
2014-11-06 00:00:00,2159E-3,5C000000,-0724,0832,12199,027.2,045.4,0.474,723.8,01.20,0.508
2014-11-06 00:01:00,2177E-3,5C000000,-0724,0833,12274,027.2,045.4,0.473,723.7,01.20,0.508
2014-11-06 00:02:00,2216E-3,5C000000,-0724,0831,12125,027.2,045.4,0.473,723.9,01.20,0.508
2014-11-06 00:03:00,2186E-3,5C000000,-0724,0833,12246,027.2,045.4,0.473,723.7,01.20,0.508
2014-11-06 00:04:00,2189E-3,5C000000,-0724,0831,12098,027.2,045.4,0.474,723.7,01.20,0.508
2014-11-06 00:05:00,2011E-3,5C000000,-0724,0832,12118,027.2,045.4,0.474,723.6,01.20,0.508
2014-11-06 00:06:00,2203E-3,5C000000,-0724,0831,12156,027.2,045.4,0.473,723.7,01.20,0.508
2014-11-06 00:07:00,2223E-3,5C000000,-0724,0832,12204,027.2,045.4,0.473,723.7,01.20,0.508
2014-11-06 00:08:00,2074E-3,5C000000,-0724,0832,12231,027.2,045.4,0.473,723.7,01.20,0.508
2014-11-06 00:09:00,2168E-3,5C000000,-0724,0832,12231,027.2,045.4,0.474,723.7,01.20,0.508
2014-11-06 00:10:00,2062E-3,5C000000,-0724,0831,12338,027.2,045.4,0.473,723.6,01.20,0.508
2014-11-06 00:11:00,2125E-3,5C000000,-0724,0831,12235,027.2,045.4,0.473,723.5,01.20,0.508
2014-11-06 00:12:00,2256E-3,5C000000,-0724,0832,12192,027.2,045.4,0.473,723.7,01.20,0.508
2014-11-06 00:13:00,2177E-3,5C000000,-0724,0833,12359,027.2,045.4,0.474,723.6,01.20,0.508
2014-11-06 00:14:00,2063E-3,5C000000,-0724,0832,12045,027.2,045.4,0.474,723.6,01.20,0.508
2014-11-06 00:15:00,2087E-3,5C000000,-0724,0831,12160,027.2,045.4,0.473,723.6,01.20,0.508
2014-11-06 00:16:00,2162E-3,5C000000,-0724,0832,12221,027.2,045.4,0.473,723.4,01.20,0.508
2014-11-06 00:17:00,2136E-3,5C000000,-0724,0832,12170,027.2,045.4,0.473,723.4,01.20,0.508
2014-11-06 00:18:00,2135E-3,5C000000,-0724,0831,12256,027.2,045.4,0.473,723.4,01.20,0.508
2014-11-06 00:19:00,2173E-3,5C000000,-0724,0832,12213,027.2,045.4,0.473,723.5,01.20,0.508
2014-11-06 00:20:00,2275E-3,5C000000,-0724,0833,12302,027.2,045.4,0.473,723.5,01.20,0.508
2014-11-06 00:21:00,2136E-3,5C000000,-0724,0832,12403,027.2,045.4,0.473,723.6,01.20,0.508
2014-11-06 00:22:00,2099E-3,5C000000,-0724,0833,12251,027.3,045.4,0.474,723.5,01.20,0.508
2014-11-06 00:23:00,2123E-3,5C000000,-0724,0832,12190,027.3,045.4,0.474,723.5,01.20,0.508
2014-11-06 00:24:00,2239E-3,5C000000,-0724,0832,12301,027.3,045.4,0.473,723.7,01.20,0.508
2014-11-06 00:25:00,2080E-3,5C000000,-0724,0832,12107,027.3,045.4,0.473,723.6,01.20,0.508
2014-11-06 00:26:00,2104E-3,5C000000,-0724,0832,12264,027.3,045.4,0.473,723.6,01.20,0.508
2014-11-06 00:27:00,2069E-3,5C000000,-0724,0831,12130,027.3,045.4,0.474,723.7,01.20,0.508
2014-11-06 00:28:00,2092E-3,5C000000,-0724,0833,12015,027.3,045.4,0.473,723.7,01.20,0.508
2014-11-06 00:29:00,2065E-3,5C000000,-0724,0833,12096,027.3,045.4,0.473,723.8,01.20,0.508
2014-11-06 00:30:00,2130E-3,5C000000,-0724,0831,12208,027.3,045.4,0.473,723.8,01.20,0.508
2014-11-06 00:31:00,2291E-3,5C000000,-0724,0833,12220,027.3,045.4,0.474,723.8,01.20,0.508
2014-11-06 00:32:00,2204E-3,5C000000,-0724,0831,12314,027.3,045.4,0.473,723.6,01.20,0.508
2014-11-06 00:33:00,2065E-3,5C000000,-0724,0832,12227,027.3,045.4,0.473,723.7,01.20,0.508
2014-11-06 00:34:00,2183E-3,5C000000,-0724,0832,12085,027.3,045.4,0.473,723.7,01.20,0.508
2014-11-06 00:35:00,2128E-3,5C000000,-0724,0831,12258,027.3,045.4,0.473,723.6,01.20,0.508
2014-11-06 00:36:00,2123E-3,5C000000,-0724,0833,12248,027.3,045.4,0.474,723.7,01.20,0.508
2014-11-06 00:37:00,2052E-3,5C000000,-0724,0833,12172,027.3,045.4,0.473,723.8,01.20,0.508
2014-11-06 00:38:00,2047E-3,5C000000,-0724,0832,12078,027.3,045.4,0.473,723.7,01.20,0.508
2014-11-06 00:39:00,2082E-3,5C000000,-0724,0832,12183,027.3,045.4,0.473,723.7,01.20,0.508
2014-11-06 00:40:00,2051E-3,5C000000,-0724,0833,12300,027.3,045.4,0.474,723.7,01.20,0.508
2014-11-06 00:41:00,2243E-3,5C000000,-0724,0832,12126,027.3,045.4,0.474,723.7,01.20,0.508
2014-11-06 00:42:00,2336E-3,5C000000,-0724,0833,12251,027.3,045.4,0.473,723.5,01.20,0.508
2014-11-06 00:43:00,2144E-3,5C000000,-0724,0832,12191,027.3,045.4,0.473,723.6,01.20,0.508
2014-11-06 00:44:00,2085E-3,5C000000,-0724,0832,12319,027.3,045.4,0.473,723.6,01.20,0.508
2014-11-06 00:45:00,2191E-3,5C000000,-0724,0831,12160,027.3,045.4,0.473,723.6,01.20,0.508
2014-11-06 00:46:00,2223E-3,5C000000,-0724,0832,12215,027.3,045.4,0.473,723.6,01.20,0.508
2014-11-06 00:47:00,2242E-3,5C000000,-0724,0830,12184,027.3,045.4,0.473,723.6,01.20,0.508
2014-11-06 00:48:00,2267E-3,5C000000,-0724,0831,12178,027.3,045.4,0.473,723.5,01.20,0.508
2014-11-06 00:49:00,2020E-3,5C000000,-0724,0833,12195,027.3,045.4,0.473,723.6,01.20,0.508
2014-11-06 00:50:00,2170E-3,5C000000,-0724,0833,12238,027.3,045.4,0.473,723.7,01.20,0.508
2014-11-06 00:51:00,2186E-3,5C000000,-0724,0832,12077,027.3,045.4,0.473,723.6,01.20,0.508
2014-11-06 00:52:00,2083E-3,5C000000,-0724,0832,12190,027.3,045.4,0.473,723.6,01.20,0.508
2014-11-06 00:53:00,2073E-3,5C000000,-0724,0834,12236,027.4,045.4,0.473,723.6,01.20,0.508
2014-11-06 00:54:00,2154E-3,5C000000,-0724,0833,11991,027.3,045.4,0.473,723.7,01.20,0.508
2014-11-06 00:55:00,2005E-3,5C000000,-0724,0832,12267,027.4,045.4,0.473,723.6,01.20,0.508
2014-11-06 00:56:00,2262E-3,5C000000,-0724,0832,12327,027.3,045.4,0.473,723.7,01.20,0.508
2014-11-06 00:57:00,2072E-3,5C000000,-0724,0832,12157,027.4,045.4,0.473,723.7,01.20,0.508
2014-11-06 00:58:00,2075E-3,5C000000,-0724,0832,12242,027.4,045.4,0.473,723.6,01.20,0.508
2014-11-06 00:59:00,2164E-3,5C000000,-0724,0833,12225,027.4,045.4,0.473,723.7,01.20,0.508
2014-11-06 01:00:00,2239E-3,5C000000,-0724,0833,12326,027.3,045.4,0.473,723.6,01.20,0.508
2014-11-06 01:01:00,2133E-3,5C000000,-0724,0832,11921,027.4,045.4,0.473,723.6,01.20,0.508
2014-11-06 01:02:00,2143E-3,5C000000,-0724,0832,12293,027.4,045.4,0.473,723.6,01.20,0.508
2014-11-06 01:03:00,2049E-3,5C000000,-0724,0833,12189,027.4,045.4,0.473,723.6,01.20,0.508
2014-11-06 01:04:00,2131E-3,5C000000,-0724,0832,12283,027.4,045.4,0.473,723.6,01.20,0.508
2014-11-06 01:05:00,2099E-3,5C000000,-0724,0833,12151,027.4,045.4,0.473,723.5,01.20,0.508
2014-11-06 01:06:00,2093E-3,5C000000,-0724,0833,12153,027.4,045.4,0.473,723.6,01.20,0.508
2014-11-06 01:07:00,2236E-3,5C000000,-0724,0833,12080,027.4,045.4,0.473,723.5,01.20,0.508
2014-11-06 01:08:00,2248E-3,5C000000,-0724,0832,12072,027.4,045.4,0.473,723.4,01.20,0.508
2014-11-06 01:09:00,2108E-3,5C000000,-0724,0832,12256,027.4,045.4,0.473,723.4,01.20,0.508
2014-11-06 01:10:00,2228E-3,5C000000,-0724,0832,12064,027.4,045.4,0.473,723.6,01.20,0.508
2014-11-06 01:11:00,2131E-3,5C000000,-0724,0831,12327,027.4,045.4,0.473,723.6,01.20,0.508
2014-11-06 01:12:00,2092E-3,5C000000,-0724,0833,12000,027.4,045.4,0.473,723.5,01.20,0.508
2014-11-06 01:13:00,2110E-3,5C000000,-0724,0833,12115,027.4,045.4,0.473,723.6,01.20,0.508
2014-11-06 01:14:00,2164E-3,5C000000,-0724,0831,12282,027.4,045.4,0.473,723.6,01.20,0.508
2014-11-06 01:15:00,2117E-3,5C000000,-0724,0832,12229,027.4,045.4,0.473,723.5,01.20,0.508
2014-11-06 01:16:00,2156E-3,5C000000,-0724,0832,12147,027.5,045.4,0.473,723.5,01.20,0.508
2014-11-06 01:17:00,2010E-3,5C000000,-0724,0832,12241,027.5,045.4,0.473,723.6,01.20,0.508
2014-11-06 01:18:00,2061E-3,5C000000,-0724,0833,12193,027.5,045.4,0.473,723.6,01.20,0.508
2014-11-06 01:19:00,2075E-3,5C000000,-0724,0833,12089,027.5,045.4,0.473,723.5,01.20,0.508
2014-11-06 01:20:00,2069E-3,5C000000,-0724,0832,12034,027.5,045.4,0.473,723.5,01.20,0.508
2014-11-06 01:21:00,2068E-3,5C000000,-0724,0833,12190,027.5,045.4,0.473,723.6,01.20,0.508
2014-11-06 01:22:00,2181E-3,5C000000,-0724,0832,12210,027.5,045.4,0.473,723.5,01.20,0.508
2014-11-06 01:23:00,2129E-3,5C000000,-0724,0832,12274,027.5,045.4,0.473,723.5,01.20,0.508
2014-11-06 01:24:00,2024E-3,5C000000,-0724,0832,12230,027.5,045.4,0.473,723.5,01.20,0.508
2014-11-06 01:25:00,2132E-3,5C000000,-0724,0832,12177,027.5,045.4,0.473,723.6,01.20,0.508
2014-11-06 01:26:00,2118E-3,5C000000,-0724,0832,12298,027.5,045.4,0.473,723.5,01.20,0.508
2014-11-06 01:27:00,2253E-3,5C000000,-0724,0832,11977,027.5,045.4,0.473,723.5,01.20,0.508
2014-11-06 01:28:00,2081E-3,5C000000,-0724,0832,12039,027.5,045.4,0.473,723.5,01.20,0.508
2014-11-06 01:29:00,2114E-3,5C000000,-0724,0832,12292,027.5,045.4,0.473,723.4,01.20,0.508
2014-11-06 01:30:00,2114E-3,5C000000,-0724,0832,12230,027.5,045.4,0.472,723.4,01.20,0.508
2014-11-06 01:31:00,2089E-3,5C000000,-0724,0832,12248,027.5,045.4,0.473,723.4,01.20,0.508
2014-11-06 01:32:00,2189E-3,5C000000,-0724,0832,12107,027.5,045.4,0.473,723.4,01.20,0.508
2014-11-06 01:33:00,2174E-3,5C000000,-0724,0833,12093,027.6,045.4,0.473,723.3,01.20,0.508
2014-11-06 01:34:00,2074E-3,5C000000,-0724,0832,12317,027.5,045.4,0.472,723.3,01.20,0.508
2014-11-06 01:35:00,2100E-3,5C000000,-0724,0832,12253,027.5,045.4,0.472,723.3,01.20,0.508
2014-11-06 01:36:00,2094E-3,5C000000,-0724,0832,12183,027.6,045.4,0.473,723.3,01.20,0.508
2014-11-06 01:37:00,2044E-3,5C000000,-0724,0832,12198,027.5,045.5,0.473,723.2,01.20,0.508
2014-11-06 01:38:00,2186E-3,5C000000,-0724,0833,12208,027.6,045.4,0.472,723.3,01.20,0.508
2014-11-06 01:39:00,2119E-3,5C000000,-0724,0832,12260,027.6,045.4,0.473,723.3,01.20,0.508
2014-11-06 01:40:00,2060E-3,5C000000,-0724,0832,12199,027.6,045.4,0.473,723.2,01.20,0.508
2014-11-06 01:41:00,2097E-3,5C000000,-0724,0832,12136,027.6,045.4,0.472,723.3,01.20,0.508
2014-11-06 01:42:00,2196E-3,5C000000,-0724,0831,12362,027.6,045.4,0.472,723.3,01.20,0.508
2014-11-06 01:43:00,2051E-3,5C000000,-0724,0832,12225,027.6,045.4,0.473,723.2,01.20,0.508
2014-11-06 01:44:00,2053E-3,5C000000,-0724,0833,12193,027.6,045.4,0.473,723.0,01.20,0.508
2014-11-06 01:45:00,2089E-3,5C000000,-0724,0831,12128,027.6,045.4,0.472,723.2,01.20,0.508
2014-11-06 01:46:00,2102E-3,5C000000,-0724,0832,12224,027.6,045.4,0.472,723.1,01.20,0.508
2014-11-06 01:47:00,2021E-3,5C000000,-0724,0832,12127,027.6,045.4,0.473,723.2,01.20,0.508
2014-11-06 01:48:00,2173E-3,5C000000,-0724,0833,12243,027.6,045.4,0.473,723.3,01.20,0.508
2014-11-06 01:49:00,2259E-3,5C000000,-0724,0832,12271,027.6,045.4,0.472,723.2,01.20,0.508
2014-11-06 01:50:00,2028E-3,5C000000,-0724,0833,11987,027.6,045.4,0.473,723.2,01.20,0.508
2014-11-06 01:51:00,2162E-3,5C000000,-0724,0832,12163,027.6,045.4,0.473,723.2,01.20,0.508
2014-11-06 01:52:00,2126E-3,5C000000,-0724,0832,12156,027.7,045.4,0.472,723.1,01.20,0.508
2014-11-06 01:53:00,2186E-3,5C000000,-0724,0833,12140,027.7,045.4,0.472,723.1,01.20,0.508
2014-11-06 01:54:00,2135E-3,5C000000,-0724,0832,12218,027.7,045.4,0.473,723.0,01.20,0.508
2014-11-06 01:55:00,2130E-3,5C000000,-0724,0832,12281,027.7,045.4,0.473,723.0,01.20,0.508
2014-11-06 01:56:00,2084E-3,5C000000,-0724,0833,12172,027.7,045.4,0.472,723.0,01.20,0.508
2014-11-06 01:57:00,2153E-3,5C000000,-0724,0833,12217,027.7,045.4,0.472,723.0,01.20,0.508
2014-11-06 01:58:00,2192E-3,5C000000,-0724,0832,12153,027.7,045.4,0.472,723.1,01.20,0.508
2014-11-06 01:59:00,2201E-3,5C000000,-0724,0832,12207,027.7,045.4,0.473,723.1,01.20,0.508
2014-11-06 02:00:00,2244E-3,5C000000,-0724,0832,12223,027.8,045.4,0.472,723.1,01.20,0.508
2014-11-06 02:01:00,2159E-3,5C000000,-0724,0832,12057,027.7,045.4,0.472,723.0,01.20,0.508
2014-11-06 02:02:00,2094E-3,5C000000,-0724,0831,12073,027.8,045.4,0.472,723.1,01.20,0.508
2014-11-06 02:03:00,2003E-3,5C000000,-0724,0833,12036,027.8,045.4,0.473,723.0,01.20,0.508
2014-11-06 02:04:00,2176E-3,5C000000,-0724,0832,12256,027.8,045.4,0.472,722.9,01.20,0.508
2014-11-06 02:05:00,2005E-3,5C000000,-0724,0833,12160,027.8,045.4,0.472,723.0,01.20,0.508
2014-11-06 02:06:00,2174E-3,5C000000,-0724,0833,12110,027.8,045.4,0.472,723.1,01.20,0.508
2014-11-06 02:07:00,2046E-3,5C000000,-0724,0832,12101,027.8,045.4,0.473,723.1,01.20,0.508
2014-11-06 02:08:00,2201E-3,5C000000,-0724,0832,12192,027.8,045.4,0.472,723.1,01.20,0.508
2014-11-06 02:09:00,2192E-3,5C000000,-0724,0831,11952,027.9,045.4,0.472,723.1,01.20,0.508
2014-11-06 02:10:00,1994E-3,5C000000,-0724,0832,12126,027.9,045.4,0.472,723.1,01.20,0.508
2014-11-06 02:11:00,2008E-3,5C000000,-0724,0833,12135,027.9,045.4,0.472,723.1,01.20,0.508
2014-11-06 02:12:00,2164E-3,5C000000,-0724,0832,12235,027.9,045.4,0.472,723.2,01.20,0.508
2014-11-06 02:13:00,2110E-3,5C000000,-0724,0832,12236,027.9,045.4,0.472,723.1,01.20,0.508
2014-11-06 02:14:00,2299E-3,5C000000,-0724,0832,12122,027.9,045.4,0.472,723.2,01.20,0.508
2014-11-06 02:15:00,2056E-3,5C000000,-0724,0832,12428,027.9,045.4,0.472,723.2,01.20,0.508
2014-11-06 02:16:00,2234E-3,5C000000,-0724,0833,12269,027.9,045.4,0.472,723.2,01.20,0.508
2014-11-06 02:17:00,2126E-3,5C000000,-0724,0833,12209,027.9,045.4,0.472,723.1,01.20,0.508
2014-11-06 02:18:00,1959E-3,5C000000,-0724,0833,12235,028.0,045.4,0.472,723.2,01.20,0.508
2014-11-06 02:19:00,2104E-3,5C000000,-0724,0832,12093,027.9,045.4,0.472,723.2,01.20,0.508
2014-11-06 02:20:00,2256E-3,5C000000,-0724,0832,12217,027.9,045.5,0.472,723.2,01.20,0.508
2014-11-06 02:21:00,2185E-3,5C000000,-0724,0833,12200,028.0,045.4,0.472,723.2,01.20,0.508
2014-11-06 02:22:00,2157E-3,5C000000,-0724,0833,12356,027.9,045.4,0.472,723.2,01.20,0.508
2014-11-06 02:23:00,2165E-3,5C000000,-0724,0832,12189,027.9,045.4,0.472,723.2,01.20,0.508
2014-11-06 02:24:00,2167E-3,5C000000,-0724,0832,12281,028.0,045.5,0.472,723.2,01.20,0.508
2014-11-06 02:25:00,2054E-3,5C000000,-0724,0832,12058,027.9,045.4,0.472,723.2,01.20,0.508
2014-11-06 02:26:00,2109E-3,5C000000,-0724,0832,12193,028.0,045.4,0.472,723.2,01.20,0.508
2014-11-06 02:27:00,2071E-3,5C000000,-0724,0833,12203,028.0,045.4,0.472,723.2,01.20,0.508
2014-11-06 02:28:00,2183E-3,5C000000,-0724,0833,11966,028.0,045.4,0.472,723.1,01.20,0.508
2014-11-06 02:29:00,2096E-3,5C000000,-0724,0832,12244,028.0,045.4,0.472,723.2,01.20,0.508
2014-11-06 02:30:00,2074E-3,5C000000,-0724,0832,12163,028.0,045.4,0.472,723.1,01.20,0.508
2014-11-06 02:31:00,2137E-3,5C000000,-0724,0832,12101,028.0,045.4,0.472,723.1,01.20,0.508
2014-11-06 02:32:00,2123E-3,5C000000,-0724,0832,12160,028.0,045.5,0.472,723.0,01.20,0.508
2014-11-06 02:33:00,2063E-3,5C000000,-0724,0832,12192,028.0,045.4,0.472,723.0,01.20,0.508
2014-11-06 02:34:00,2160E-3,5C000000,-0724,0833,12069,028.0,045.4,0.472,723.0,01.20,0.508
2014-11-06 02:35:00,2128E-3,5C000000,-0724,0832,12162,028.0,045.4,0.472,723.0,01.20,0.508
2014-11-06 02:36:00,2181E-3,5C000000,-0724,0832,12183,028.0,045.4,0.472,723.0,01.20,0.508
2014-11-06 02:37:00,2209E-3,5C000000,-0724,0832,12249,028.0,045.4,0.472,723.0,01.20,0.508
2014-11-06 02:38:00,1938E-3,5C000000,-0724,0832,12165,028.0,045.4,0.472,723.0,01.20,0.508
2014-11-06 02:39:00,2110E-3,5C000000,-0724,0832,12177,028.0,045.4,0.471,722.9,01.20,0.508
2014-11-06 02:40:00,2200E-3,5C000000,-0724,0832,12052,028.0,045.4,0.472,722.7,01.20,0.508
2014-11-06 02:41:00,2142E-3,5C000000,-0724,0831,12118,028.0,045.4,0.472,722.8,01.20,0.508
2014-11-06 02:42:00,2075E-3,5C000000,-0724,0832,12157,028.0,045.4,0.472,722.9,01.20,0.508
2014-11-06 02:43:00,1979E-3,5C000000,-0724,0833,12215,028.1,045.4,0.472,722.8,01.20,0.508
2014-11-06 02:44:00,2175E-3,5C000000,-0724,0833,12113,028.1,045.5,0.472,722.8,01.20,0.508
2014-11-06 02:45:00,2253E-3,5C000000,-0724,0832,12305,028.1,045.4,0.472,722.8,01.20,0.508
2014-11-06 02:46:00,2247E-3,5C000000,-0724,0833,12207,028.1,045.4,0.471,722.9,01.20,0.508
2014-11-06 02:47:00,2176E-3,5C000000,-0724,0832,12231,028.1,045.4,0.472,722.9,01.20,0.508
2014-11-06 02:48:00,2198E-3,5C000000,-0724,0833,12061,028.1,045.4,0.472,722.8,01.20,0.508
2014-11-06 02:49:00,2089E-3,5C000000,-0724,0832,12229,028.1,045.4,0.471,723.0,01.20,0.508
2014-11-06 02:50:00,2189E-3,5C000000,-0724,0832,12217,028.1,045.4,0.472,722.8,01.20,0.508
2014-11-06 02:51:00,1949E-3,5C000000,-0724,0833,12226,028.1,045.4,0.472,722.9,01.20,0.508
2014-11-06 02:52:00,2184E-3,5C000000,-0724,0832,12231,028.1,045.4,0.472,722.9,01.20,0.508
2014-11-06 02:53:00,2035E-3,5C000000,-0724,0833,12192,028.1,045.4,0.472,722.9,01.20,0.508
2014-11-06 02:54:00,2158E-3,5C000000,-0724,0833,12210,028.1,045.4,0.472,722.8,01.20,0.508
2014-11-06 02:55:00,2048E-3,5C000000,-0724,0833,12143,028.1,045.4,0.472,722.8,01.20,0.508
2014-11-06 02:56:00,2090E-3,5C000000,-0724,0833,12205,028.2,045.4,0.471,722.8,01.20,0.508
2014-11-06 02:57:00,2138E-3,5C000000,-0724,0833,12208,028.1,045.4,0.472,722.8,01.20,0.508
2014-11-06 02:58:00,2099E-3,5C000000,-0724,0832,12204,028.1,045.4,0.472,722.8,01.20,0.508
2014-11-06 02:59:00,2301E-3,5C000000,-0724,0833,12336,028.1,045.4,0.471,722.8,01.20,0.508
2014-11-06 03:00:00,2134E-3,5C000000,-0724,0831,12166,028.1,045.4,0.472,722.8,01.20,0.508
2014-11-06 03:01:00,2219E-3,5C000000,-0724,0832,11975,028.1,045.4,0.472,722.7,01.20,0.508
2014-11-06 03:02:00,2046E-3,5C000000,-0724,0831,12221,028.1,045.4,0.471,722.7,01.20,0.508
2014-11-06 03:03:00,2130E-3,5C000000,-0724,0833,12220,028.2,045.5,0.472,722.8,01.20,0.508
2014-11-06 03:04:00,2188E-3,5C000000,-0724,0832,12278,028.1,045.4,0.472,722.8,01.20,0.508
2014-11-06 03:05:00,2079E-3,5C000000,-0724,0833,12060,028.1,045.4,0.471,722.8,01.20,0.508
2014-11-06 03:06:00,2136E-3,5C000000,-0724,0833,12261,028.1,045.4,0.471,722.8,01.20,0.508
2014-11-06 03:07:00,2164E-3,5C000000,-0724,0833,12246,028.2,045.4,0.472,722.8,01.20,0.508
2014-11-06 03:08:00,2143E-3,5C000000,-0724,0832,12101,028.2,045.4,0.472,722.8,01.20,0.508
2014-11-06 03:09:00,2278E-3,5C000000,-0724,0833,12208,028.2,045.4,0.471,722.9,01.20,0.508
2014-11-06 03:10:00,1988E-3,5C000000,-0724,0834,12357,028.2,045.4,0.472,722.7,01.20,0.508
2014-11-06 03:11:00,2030E-3,5C000000,-0724,0833,12134,028.2,045.4,0.472,722.8,01.20,0.508
2014-11-06 03:12:00,2110E-3,5C000000,-0724,0833,12194,028.2,045.4,0.471,722.7,01.20,0.508
2014-11-06 03:13:00,2123E-3,5C000000,-0724,0832,12240,028.2,045.4,0.472,722.8,01.20,0.508
2014-11-06 03:14:00,2184E-3,5C000000,-0724,0833,12205,028.2,045.4,0.472,722.8,01.20,0.508
2014-11-06 03:15:00,2264E-3,5C000000,-0724,0833,12172,028.2,045.4,0.471,722.8,01.20,0.508
2014-11-06 03:16:00,2119E-3,5C000000,-0724,0833,12069,028.2,045.4,0.472,722.8,01.20,0.508
2014-11-06 03:17:00,2255E-3,5C000000,-0724,0833,12297,028.2,045.4,0.472,722.8,01.20,0.508
2014-11-06 03:18:00,2119E-3,5C000000,-0724,0833,12155,028.2,045.5,0.471,722.8,01.20,0.508
2014-11-06 03:19:00,2093E-3,5C000000,-0724,0832,12101,028.2,045.4,0.472,722.8,01.20,0.508
2014-11-06 03:20:00,1995E-3,5C000000,-0724,0833,12284,028.2,045.4,0.472,722.8,01.20,0.508
2014-11-06 03:21:00,2113E-3,5C000000,-0724,0833,12255,028.2,045.4,0.471,722.8,01.20,0.508
2014-11-06 03:22:00,2158E-3,5C000000,-0724,0832,12108,028.2,045.5,0.472,722.9,01.20,0.508
2014-11-06 03:23:00,2188E-3,5C000000,-0724,0832,12211,028.3,045.4,0.472,722.8,01.20,0.508
2014-11-06 03:24:00,2054E-3,5C000000,-0724,0833,12299,028.3,045.4,0.471,722.9,01.20,0.508
2014-11-06 03:25:00,2068E-3,5C000000,-0724,0833,12123,028.3,045.4,0.472,722.9,01.20,0.508
2014-11-06 03:26:00,2121E-3,5C000000,-0724,0833,12248,028.3,045.4,0.471,722.9,01.20,0.508
2014-11-06 03:27:00,2094E-3,5C000000,-0724,0833,12217,028.3,045.4,0.471,723.0,01.20,0.508
2014-11-06 03:28:00,2125E-3,5C000000,-0724,0833,12087,028.3,045.4,0.472,722.9,01.20,0.508
2014-11-06 03:29:00,2090E-3,5C000000,-0724,0832,12180,028.3,045.4,0.472,723.0,01.20,0.508
2014-11-06 03:30:00,2105E-3,5C000000,-0724,0831,12193,028.3,045.4,0.471,723.0,01.20,0.508
2014-11-06 03:31:00,2138E-3,5C000000,-0724,0832,12258,028.3,045.4,0.472,723.0,01.20,0.508
2014-11-06 03:32:00,1967E-3,5C000000,-0724,0831,12083,028.3,045.4,0.471,723.0,01.20,0.508
2014-11-06 03:33:00,2055E-3,5C000000,-0724,0832,12222,028.3,045.4,0.471,723.0,01.20,0.508
2014-11-06 03:34:00,2009E-3,5C000000,-0724,0833,11967,028.3,045.5,0.472,723.0,01.20,0.508
2014-11-06 03:35:00,1971E-3,5C000000,-0724,0832,12286,028.3,045.4,0.471,723.0,01.20,0.508
2014-11-06 03:36:00,2083E-3,5C000000,-0724,0832,12216,028.3,045.4,0.471,722.9,01.20,0.508
2014-11-06 03:37:00,2103E-3,5C000000,-0724,0832,12074,028.3,045.4,0.472,722.9,01.20,0.508
2014-11-06 03:38:00,2113E-3,5C000000,-0724,0832,12293,028.3,045.4,0.471,722.8,01.20,0.508
2014-11-06 03:39:00,2442E-3,5C000000,-0724,0831,12313,028.3,045.5,0.472,722.8,01.20,0.508
2014-11-06 03:40:00,2202E-3,5C000000,-0724,0832,12099,028.3,045.5,0.471,722.8,01.20,0.508
2014-11-06 03:41:00,2129E-3,5C000000,-0724,0832,11975,028.3,045.5,0.472,722.7,01.20,0.508
2014-11-06 03:42:00,2105E-3,5C000000,-0724,0833,12076,028.3,045.5,0.471,722.8,01.20,0.508
2014-11-06 03:43:00,2113E-3,5C000000,-0724,0833,12207,028.4,045.4,0.471,722.8,01.20,0.508
2014-11-06 03:44:00,2056E-3,5C000000,-0724,0832,12047,028.3,045.5,0.472,722.7,01.20,0.508
2014-11-06 03:45:00,2315E-3,5C000000,-0724,0833,12107,028.3,045.4,0.471,722.8,01.20,0.508
2014-11-06 03:46:00,2268E-3,5C000000,-0724,0832,12073,028.3,045.4,0.472,722.8,01.20,0.508
2014-11-06 03:47:00,2188E-3,5C000000,-0724,0831,12232,028.4,045.4,0.471,722.7,01.20,0.508
2014-11-06 03:48:00,2004E-3,5C000000,-0724,0832,12138,028.3,045.5,0.471,722.7,01.20,0.508
2014-11-06 03:49:00,2141E-3,5C000000,-0724,0833,12271,028.3,045.4,0.472,722.7,01.20,0.508
2014-11-06 03:50:00,2028E-3,5C000000,-0724,0832,12058,028.4,045.4,0.471,722.7,01.20,0.508
2014-11-06 03:51:00,2075E-3,5C000000,-0724,0832,12153,028.4,045.4,0.472,722.7,01.20,0.508
2014-11-06 03:52:00,2150E-3,5C000000,-0724,0833,12294,028.4,045.4,0.471,722.7,01.20,0.508
2014-11-06 03:53:00,2206E-3,5C000000,-0724,0833,12107,028.4,045.5,0.471,722.6,01.20,0.508
2014-11-06 03:54:00,2151E-3,5C000000,-0724,0833,12215,028.4,045.4,0.471,722.7,01.20,0.508
2014-11-06 03:55:00,2102E-3,5C000000,-0724,0831,12302,028.4,045.4,0.471,722.7,01.20,0.508
2014-11-06 03:56:00,2188E-3,5C000000,-0724,0833,12241,028.4,045.4,0.472,722.6,01.20,0.508
2014-11-06 03:57:00,2119E-3,5C000000,-0724,0832,12020,028.4,045.5,0.471,722.6,01.20,0.508
2014-11-06 03:58:00,2077E-3,5C000000,-0724,0833,12063,028.4,045.5,0.471,722.6,01.20,0.508
2014-11-06 03:59:00,2100E-3,5C000000,-0724,0833,12102,028.4,045.4,0.471,722.6,01.20,0.508
2014-11-06 04:00:00,2034E-3,5C000000,-0724,0832,12107,028.4,045.5,0.471,722.6,01.20,0.508
2014-11-06 04:01:00,2188E-3,5C000000,-0724,0833,12217,028.4,045.4,0.471,722.6,01.20,0.508
2014-11-06 04:02:00,2083E-3,5C000000,-0724,0832,12149,028.4,045.4,0.471,722.5,01.20,0.508
2014-11-06 04:03:00,2146E-3,5C000000,-0724,0833,12179,028.4,045.4,0.471,722.6,01.20,0.508
2014-11-06 04:04:00,2217E-3,5C000000,-0724,0832,12293,028.4,045.4,0.471,722.6,01.20,0.508
2014-11-06 04:05:00,2034E-3,5C000000,-0724,0833,12293,028.4,045.5,0.471,722.5,01.20,0.508
2014-11-06 04:06:00,2143E-3,5C000000,-0724,0832,12162,028.4,045.4,0.471,722.6,01.20,0.508
2014-11-06 04:07:00,2201E-3,5C000000,-0724,0833,12031,028.4,045.4,0.471,722.5,01.20,0.508
2014-11-06 04:08:00,2107E-3,5C000000,-0724,0832,12172,028.4,045.4,0.471,722.6,01.20,0.508
2014-11-06 04:09:00,1978E-3,5C000000,-0724,0833,12220,028.4,045.4,0.471,722.5,01.20,0.508
2014-11-06 04:10:00,2195E-3,5C000000,-0724,0833,12176,028.5,045.4,0.471,722.5,01.20,0.508
2014-11-06 04:11:00,2183E-3,5C000000,-0724,0833,12142,028.5,045.4,0.471,722.4,01.20,0.508
2014-11-06 04:12:00,2109E-3,5C000000,-0724,0833,12061,028.5,045.5,0.471,722.3,01.20,0.508
2014-11-06 04:13:00,2086E-3,5C000000,-0724,0831,12144,028.5,045.5,0.471,722.4,01.20,0.508
2014-11-06 04:14:00,2088E-3,5C000000,-0724,0833,12196,028.4,045.4,0.471,722.4,01.20,0.508
2014-11-06 04:15:00,2067E-3,5C000000,-0724,0832,12177,028.5,045.4,0.471,722.4,01.20,0.508
2014-11-06 04:16:00,2194E-3,5C000000,-0724,0832,12101,028.5,045.4,0.471,722.4,01.20,0.508
2014-11-06 04:17:00,2234E-3,5C000000,-0724,0832,12023,028.4,045.4,0.471,722.4,01.20,0.508
2014-11-06 04:18:00,2155E-3,5C000000,-0724,0832,12280,028.5,045.4,0.471,722.3,01.20,0.508
2014-11-06 04:19:00,2128E-3,5C000000,-0724,0833,12173,028.5,045.5,0.471,722.4,01.20,0.508
2014-11-06 04:20:00,1958E-3,5C000000,-0724,0834,12224,028.5,045.5,0.471,722.3,01.20,0.508